This is the latest recevied weather packets stored in our database for station/object WI5KEY. If no packets are shown the sender has not sent any weather packets the latest 10 day(s).
| Time | Temp. | Humidity | Pressure | Rain* | Wind** | Luminosity | Snow |
|---|---|---|---|---|---|---|---|
| 1777777250 | 17.22° C | 70% | 1021.6 hPa | 0 mm | - | - | - |
| 1777776336 | 17.78° C | 68% | 1021.5 hPa | 0 mm | - | - | - |
| 1777775437 | 18.33° C | 65% | 1021.3 hPa | 0 mm | - | - | - |
| 1777774541 | 18.33° C | 64% | 1021 hPa | 0 mm | - | - | - |
| 1777773637 | 18.89° C | 63% | 1020.6 hPa | 0 mm | - | - | - |
| 1777772734 | 19.44° C | 62% | 1020.7 hPa | 0 mm | - | - | - |
| 1777771833 | 20° C | 61% | 1020.6 hPa | 0 mm | - | - | - |
| 1777770935 | 20.56° C | 58% | 1020.4 hPa | 0 mm | - | - | - |
| 1777770032 | 21.11° C | 57% | 1020.4 hPa | 0 mm | - | - | - |
| 1777769133 | 21.67° C | 56% | 1020.2 hPa | 0 mm | - | - | - |
| 1777768231 | 22.22° C | 53% | 1020.1 hPa | 0 mm | - | - | - |
| 1777767331 | 22.22° C | 48% | 1020.3 hPa | 0 mm | - | - | - |
| 1777766433 | 22.78° C | 46% | 1020.3 hPa | 0 mm | - | - | - |
| 1777765529 | 22.78° C | 45% | 1020.2 hPa | 0 mm | - | - | - |
| 1777764628 | 22.78° C | 46% | 1020.1 hPa | 0 mm | - | - | - |
| 1777763731 | 23.33° C | 48% | 1020.1 hPa | 0 mm | - | - | - |
| 1777762827 | 23.33° C | 46% | 1020 hPa | 0 mm | - | - | - |
| 1777761926 | 23.33° C | 47% | 1020 hPa | 0 mm | - | - | - |
| 1777761025 | 23.33° C | 48% | 1019.9 hPa | 0 mm | - | - | - |
| 1777760125 | 23.33° C | 47% | 1020 hPa | 0 mm | - | - | - |
| 1777759226 | 23.33° C | 44% | 1020.1 hPa | 0 mm | - | - | - |
| 1777758329 | 23.33° C | 45% | 1020.2 hPa | 0 mm | - | - | - |
| 1777757423 | 23.33° C | 45% | 1020.5 hPa | 0 mm | - | - | - |
| 1777756529 | 23.33° C | 49% | 1020.7 hPa | 0 mm | - | - | - |
| 1777755621 | 23.33° C | 46% | 1020.9 hPa | 0 mm | - | - | - |
* Rain latest hour (hover to see other rain measurements)
** Current wind speed in m/s (hover to see current wind gust speed)